Location: Valencia
(39.4670°N, 0.3670°W)
Time: 18:19:10
(UTC+02:00)

ISS - Pass Details

Date: 10 August 2017
Orbit: 401 x 408 km, 51.6° (Epoch: 19 August)

Event Time Altitude Azimuth Distance (km) Brightness Sun altitude
Rises 22:07:00 0° 309° (NW) 2,316 2.0 -11.8°
Reaches altitude 10° 22:09:06 10° 313° (NW) 1,454 0.4 -12.2°
Maximum altitude 22:12:20 67° 36° (NE) 439 -3.7 -12.7°
Enters shadow 22:14:05 24° 114° (ESE) 867 -2.8 -13.0°
